WA4BPS Weather Reports


Display with metric or nautical units.
time (UTC)temp
F
wind
direction
speed
MPH
gust
MPH
rain 1hr
in
rain 24hr
in
rain mn
in
humidity
%
barometer
mb
20260906134731 73 260 1.0 7.0 0.00 0.00 0.00 87 1011.2
20260906134701 73 257 2.0 7.0 0.00 0.00 0.00 87 1011.2
20260906134539 73 258 1.0 7.0 0.00 0.00 0.00 87 1011.2
20260906134436 72 256 1.0 7.0 0.00 0.00 0.00 86 1011.2
20260906134335 72 257 2.0 7.0 0.00 0.00 0.00 86 1011.2
20260906134233 72 257 0.0 7.0 0.00 0.00 0.00 86 1011.4
20260906134135 72 257 2.0 7.0 0.00 0.00 0.00 86 1011.4
20260906134034 72 258 3.0 7.0 0.00 0.00 0.00 86 1011.4
20260906133934 72 267 0.0 6.0 0.00 0.00 0.00 86 1011.4
20260906133832 72 265 1.0 6.0 0.00 0.00 0.00 86 1011.4
20260906133732 72 265 2.0 6.0 0.00 0.00 0.00 86 1011.4
20260906133630 72 267 1.0 6.0 0.00 0.00 0.00 86 1011.4
20260906133529 72 267 2.0 6.0 0.00 0.00 0.00 86 1011.4
20260906133432 72 267 2.0 6.0 0.00 0.00 0.00 86 1011.4
20260906133330 72 265 3.0 6.0 0.00 0.00 0.00 86 1011.4
20260906133240 72 267 2.0 6.0 0.00 0.00 0.00 86 1011.4
20260906133150 72 267 4.0 6.0 0.00 0.00 0.00 86 1011.4
20260906133047 72 258 3.0 6.0 0.00 0.00 0.00 86 1011.4
20260906132925 72 260 3.0 6.0 0.00 0.00 0.00 86 1011.4
20260906132824 72 274 0.0 6.0 0.00 0.00 0.00 86 1011.4
20260906132725 72 270 2.0 6.0 0.00 0.00 0.00 85 1011.5
20260906132643 72 274 2.0 6.0 0.00 0.00 0.00 86 1011.5
20260906132542 72 271 3.0 6.0 0.00 0.00 0.00 86 1011.5
20260906132441 72 271 3.0 6.0 0.00 0.00 0.00 86 1011.5
20260906132358 71 272 4.0 6.0 0.00 0.00 0.00 86 1011.5
20260906132235 71 270 3.0 6.0 0.00 0.00 0.00 86 1011.5
20260906132139 71 270 2.0 6.0 0.00 0.00 0.00 86 1011.5
20260906132037 71 265 1.0 6.0 0.00 0.00 0.00 86 1011.5
20260906131939 71 263 1.0 6.0 0.00 0.00 0.00 86 1011.5
20260906131858 71 261 2.0 6.0 0.00 0.00 0.00 86 1011.5
20260906131754 71 261 1.0 6.0 0.00 0.00 0.00 86 1011.5
20260906131723 71 264 3.0 6.0 0.00 0.00 0.00 86 1011.5
20260906131600 71 263 2.0 6.0 0.00 0.00 0.00 86 1011.5
20260906131438 71 263 1.0 6.0 0.00 0.00 0.00 85 1011.5
20260906131359 71 260 1.0 6.0 0.00 0.00 0.00 85 1011.5
20260906131237 71 261 3.0 6.0 0.00 0.00 0.00 85 1011.6
20260906131135 71 258 4.0 6.0 0.00 0.00 0.00 85 1011.6
20260906131039 71 267 4.0 6.0 0.00 0.00 0.00 85 1011.6
20260906130939 71 261 4.0 6.0 0.00 0.00 0.00 85 1011.6
20260906130838 71 258 4.0 6.0 0.00 0.00 0.00 85 1011.6
20260906130735 71 271 3.0 6.0 0.00 0.00 0.00 86 1011.6
20260906130633 71 271 3.0 6.0 0.00 0.00 0.00 86 1011.6
20260906130532 71 270 4.0 6.0 0.00 0.00 0.00 86 1011.6
20260906130451 71 268 3.0 6.0 0.00 0.00 0.00 86 1011.6
20260906130332 71 265 1.0 6.0 0.00 0.00 0.00 86 1011.6
20260906130250 71 265 1.0 6.0 0.00 0.00 0.00 86 1011.6
20260906130221 71 265 2.0 6.0 0.00 0.00 0.00 86 1011.6
20260906130036 71 260 3.0 7.0 0.00 0.00 0.00 86 1011.6
20260906125934 70 264 3.0 7.0 0.00 0.00 0.00 86 1011.6
20260906125832 70 278 1.0 7.0 0.00 0.00 0.00 86 1011.6
20260906125730 70 278 2.0 7.0 0.00 0.00 0.00 87 1011.4
20260906125633 70 277 2.0 7.0 0.00 0.00 0.00 87 1011.4
20260906125551 70 280 2.0 7.0 0.00 0.00 0.00 87 1011.4
20260906125428 70 264 2.0 7.0 0.00 0.00 0.00 88 1011.4
20260906125325 70 264 3.0 7.0 0.00 0.00 0.00 88 1011.4
20260906125224 70 253 3.0 7.0 0.00 0.00 0.00 88 1011.4
20260906125143 70 261 3.0 6.0 0.00 0.00 0.00 89 1011.4
20260906125042 70 260 3.0 6.0 0.00 0.00 0.00 89 1011.4
20260906124959 70 258 2.0 6.0 0.00 0.00 0.00 89 1011.4
20260906124840 70 256 2.0 6.0 0.00 0.00 0.00 89 1011.4
20260906124739 70 254 2.0 6.0 0.00 0.00 0.00 89 1011.4
20260906124709 70 268 2.0 6.0 0.00 0.00 0.00 89 1011.4
20260906124547 70 271 1.0 6.0 0.00 0.00 0.00 89 1011.4
20260906124445 70 271 4.0 6.0 0.00 0.00 0.00 89 1011.4
20260906124403 70 272 4.0 6.0 0.00 0.00 0.00 88 1011.4
20260906124302 70 272 2.0 6.0 0.00 0.00 0.00 88 1011.5
20260906124140 70 272 0.0 6.0 0.00 0.00 0.00 88 1011.5
20260906124039 70 272 1.0 6.0 0.00 0.00 0.00 88 1011.5
20260906123941 70 272 2.0 6.0 0.00 0.00 0.00 88 1011.5
20260906123839 70 272 4.0 6.0 0.00 0.00 0.00 88 1011.5
20260906123740 70 280 2.0 5.0 0.00 0.00 0.00 88 1011.5
20260906123658 70 281 1.0 3.0 0.00 0.00 0.00 88 1011.5
20260906123535 70 282 1.0 3.0 0.00 0.00 0.00 88 1011.5
20260906123434 70 282 2.0 3.0 0.00 0.00 0.00 88 1011.5
20260906123332 70 282 1.0 3.0 0.00 0.00 0.00 88 1011.5
20260906123251 70 282 2.0 3.0 0.00 0.00 0.00 88 1011.5
20260906123204 70 284 1.0 3.0 0.00 0.00 0.00 88 1011.5
20260906123041 70 282 1.0 3.0 0.00 0.00 0.00 88 1011.5
20260906122939 69 280 1.0 3.0 0.00 0.00 0.00 87 1011.5
20260906122838 69 278 1.0 3.0 0.00 0.00 0.00 87 1011.5
20260906122737 69 281 3.0 3.0 0.00 0.00 0.00 87 1011.5
20260906122634 69 282 3.0 3.0 0.00 0.00 0.00 87 1011.5
20260906122533 69 282 2.0 3.0 0.00 0.00 0.00 87 1011.5
20260906122435 69 280 2.0 3.0 0.00 0.00 0.00 87 1011.5
20260906122334 69 284 2.0 3.0 0.00 0.00 0.00 87 1011.5
20260906122232 69 282 2.0 3.0 0.00 0.00 0.00 87 1011.5
20260906122129 69 282 2.0 3.0 0.00 0.00 0.00 87 1011.5
20260906122029 69 282 2.0 3.0 0.00 0.00 0.00 87 1011.5
20260906121925 69 284 2.0 3.0 0.00 0.00 0.00 87 1011.5
20260906121828 69 284 2.0 3.0 0.00 0.00 0.00 87 1011.5
20260906121728 69 280 2.0 3.0 0.00 0.00 0.00 87 1011.5
20260906121701 69 284 2.0 3.0 0.00 0.00 0.00 87 1011.5
20260906121558 69 282 2.0 3.0 0.00 0.00 0.00 87 1011.5
20260906121435 69 282 1.0 3.0 0.00 0.00 0.00 87 1011.5
20260906121334 69 282 2.0 3.0 0.00 0.00 0.00 87 1011.5
20260906121232 69 282 2.0 3.0 0.00 0.00 0.00 87 1011.3
20260906121131 69 282 1.0 4.0 0.00 0.00 0.00 87 1011.3
20260906121033 69 284 2.0 4.0 0.00 0.00 0.00 87 1011.3
20260906120932 69 284 2.0 4.0 0.00 0.00 0.00 87 1011.3
20260906120832 69 282 2.0 4.0 0.00 0.00 0.00 87 1011.3
20260906120730 69 282 2.0 4.0 0.00 0.00 0.00 87 1011.3
20260906120629 69 282 2.0 4.0 0.00 0.00 0.00 87 1011.3
20260906120527 69 281 2.0 4.0 0.00 0.00 0.00 87 1011.3
20260906120430 69 282 2.0 4.0 0.00 0.00 0.00 87 1011.3
20260906120328 69 282 2.0 4.0 0.00 0.00 0.00 87 1011.3
20260906120258 69 280 3.0 4.0 0.00 0.00 0.00 87 1011.3
20260906120146 69 280 2.0 4.0 0.00 0.00 0.00 87 1011.3
20260906120042 69 285 2.0 4.0 0.00 0.00 0.00 87 1011.3
20260906115941 69 294 2.0 3.0 0.00 0.00 0.00 87 1011.3
20260906115839 69 292 1.0 3.0 0.00 0.00 0.00 87 1011.3
20260906115738 69 292 1.0 3.0 0.00 0.00 0.00 87 1011.4
20260906115640 69 294 2.0 3.0 0.00 0.00 0.00 87 1011.4
20260906115539 69 294 2.0 3.0 0.00 0.00 0.00 87 1011.4
20260906115439 69 295 2.0 5.0 0.00 0.00 0.00 87 1011.4
20260906115337 69 295 1.0 5.0 0.00 0.00 0.00 87 1011.4
20260906115234 69 295 1.0 5.0 0.00 0.00 0.00 87 1011.4
20260906115131 69 299 1.0 6.0 0.00 0.00 0.00 87 1011.4
20260906115031 69 301 1.0 6.0 0.00 0.00 0.00 87 1011.4
20260906114932 69 301 1.0 6.0 0.00 0.00 0.00 87 1011.4
20260906114830 69 301 1.0 6.0 0.00 0.00 0.00 87 1011.4
20260906114729 69 301 1.0 6.0 0.00 0.00 0.00 87 1011.4
20260906114657 69 301 2.0 6.0 0.00 0.00 0.00 87 1011.4
20260906114535 69 302 2.0 6.0 0.00 0.00 0.00 87 1011.4
20260906114433 69 302 1.0 6.0 0.00 0.00 0.00 87 1011.4
20260906114331 69 304 4.0 6.0 0.00 0.00 0.00 87 1011.4
20260906114233 69 299 4.0 6.0 0.00 0.00 0.00 87 1011.3
20260906114151 69 304 3.0 6.0 0.00 0.00 0.00 87 1011.3
20260906114028 69 306 4.0 6.0 0.00 0.00 0.00 86 1011.3
20260906113927 69 11 2.0 3.0 0.00 0.00 0.00 86 1011.3
20260906113846 69 13 1.0 2.0 0.00 0.00 0.00 86 1011.3
20260906113803 70 13 1.0 3.0 0.00 0.00 0.00 86 1011.3
20260906113640 70 16 0.0 3.0 0.00 0.00 0.00 86 1011.3
20260906113542 70 14 0.0 3.0 0.00 0.00 0.00 86 1011.3
20260906113424 70 13 0.0 3.0 0.00 0.00 0.00 86 1011.3
20260906113342 70 17 0.0 3.0 0.00 0.00 0.00 86 1011.3
20260906113241 70 17 0.0 3.0 0.00 0.00 0.00 86 1011.3
20260906113212 70 17 1.0 5.0 0.00 0.00 0.00 86 1011.3
20260906113029 70 17 2.0 5.0 0.00 0.00 0.00 86 1011.3
20260906112926 70 16 2.0 5.0 0.00 0.00 0.00 86 1011.3
20260906112845 70 14 2.0 5.0 0.00 0.00 0.00 86 1011.3
20260906112741 70 17 2.0 5.0 0.00 0.00 0.00 86 1011.2
20260906112624 70 17 2.0 5.0 0.00 0.00 0.00 86 1011.2
20260906112542 70 17 3.0 5.0 0.00 0.00 0.00 86 1011.2
20260906112441 70 17 3.0 5.0 0.00 0.00 0.00 86 1011.2
20260906112339 70 17 3.0 5.0 0.00 0.00 0.00 86 1011.2
20260906112237 70 17 5.0 5.0 0.00 0.00 0.00 86 1011.2
20260906112135 70 17 4.0 5.0 0.00 0.00 0.00 86 1011.2
20260906112053 70 16 3.0 5.0 0.00 0.00 0.00 86 1011.2
20260906111930 70 14 2.0 5.0 0.00 0.00 0.00 85 1011.2
20260906111836 70 14 2.0 5.0 0.00 0.00 0.00 86 1011.2
20260906111734 70 16 2.0 5.0 0.00 0.00 0.00 85 1011.2
20260906111703 70 17 2.0 5.0 0.00 0.00 0.00 85 1011.2
20260906111601 70 17 2.0 5.0 0.00 0.00 0.00 85 1011.2
20260906111438 70 17 2.0 5.0 0.00 0.00 0.00 85 1011.2
20260906111336 70 16 3.0 5.0 0.00 0.00 0.00 85 1011.2
20260906111233 70 13 3.0 5.0 0.00 0.00 0.00 85 1010.8
20260906111131 70 16 3.0 5.0 0.00 0.00 0.00 85 1010.8
20260906111033 70 14 3.0 3.0 0.00 0.00 0.00 85 1010.8
20260906110935 70 14 2.0 3.0 0.00 0.00 0.00 85 1010.8
20260906110832 70 14 0.0 2.0 0.00 0.00 0.00 85 1010.8
20260906110733 70 14 0.0 2.0 0.00 0.00 0.00 85 1010.8
20260906110630 70 16 0.0 2.0 0.00 0.00 0.00 85 1010.8
20260906110549 70 14 1.0 2.0 0.00 0.00 0.00 85 1010.8
20260906110446 70 14 1.0 3.0 0.00 0.00 0.00 85 1010.8
20260906110404 70 14 0.0 3.0 0.00 0.00 0.00 85 1010.8
20260906110237 70 14 1.0 3.0 0.00 0.00 0.00 85 1010.8
20260906110146 70 14 1.0 3.0 0.00 0.00 0.00 85 1010.8
20260906110043 70 13 0.0 4.0 0.00 0.00 0.00 85 1010.8
20260906105941 70 14 0.0 4.0 0.00 0.00 0.00 85 1010.8
20260906105858 70 13 1.0 4.0 0.00 0.00 0.00 84 1010.8
20260906105736 70 14 1.0 4.0 0.00 0.00 0.00 84 1010.3
20260906105635 70 14 1.0 4.0 0.00 0.00 0.00 84 1010.3
20260906105533 70 14 1.0 5.0 0.00 0.00 0.00 84 1010.3
20260906105435 70 13 2.0 6.0 0.00 0.00 0.00 84 1010.3
20260906105356 70 14 2.0 6.0 0.00 0.00 0.00 84 1010.3
20260906105234 70 13 3.0 7.0 0.00 0.00 0.00 84 1010.3
20260906105132 70 16 1.0 8.0 0.00 0.00 0.00 84 1010.3
20260906105030 70 16 2.0 8.0 0.00 0.00 0.00 84 1010.3
20260906104930 70 18 1.0 8.0 0.00 0.00 0.00 84 1010.3
20260906104829 70 18 2.0 8.0 0.00 0.00 0.00 84 1010.3
20260906104742 70 20 3.0 9.0 0.00 0.00 0.00 83 1010.3
20260906104651 70 20 5.0 10.0 0.00 0.00 0.00 83 1010.3
20260906104529 70 20 6.0 10.0 0.00 0.00 0.00 83 1010.3
20260906104429 70 20 6.0 10.0 0.00 0.00 0.00 83 1010.3
20260906104347 70 17 7.0 10.0 0.00 0.00 0.00 83 1010.3
20260906104223 70 23 7.0 10.0 0.00 0.00 0.00 83 1010.2
20260906104125 70 23 7.0 10.0 0.00 0.00 0.00 83 1010.2
20260906104043 70 11 8.0 10.0 0.00 0.00 0.00 83 1010.2
20260906103945 70 10 8.0 11.0 0.00 0.00 0.00 83 1010.2
20260906103902 70 6 8.0 11.0 0.00 0.00 0.00 82 1010.2
20260906103759 70 8 9.0 11.0 0.00 0.00 0.00 83 1010.2
20260906103638 70 10 8.0 11.0 0.00 0.00 0.00 82 1010.2
20260906103535 70 17 7.0 11.0 0.00 0.00 0.00 82 1010.2
20260906103455 70 17 7.0 11.0 0.00 0.00 0.00 82 1010.2
20260906103331 70 25 7.0 11.0 0.00 0.00 0.00 82 1010.2
20260906103242 70 20 9.0 11.0 0.00 0.00 0.00 82 1010.2
20260906103153 70 14 9.0 11.0 0.00 0.00 0.00 83 1010.2
20260906103033 70 11 8.0 11.0 0.00 0.00 0.00 83 1010.2
20260906102932 70 1 6.0 10.0 0.00 0.00 0.00 83 1010.2
20260906102830 70 1 2.0 10.0 0.00 0.00 0.00 82 1010.2
20260906102730 70 360 1.0 10.0 0.00 0.00 0.00 81 1010.5
20260906102632 70 360 2.0 10.0 0.00 0.00 0.00 81 1010.5
20260906102530 70 360 3.0 10.0 0.00 0.00 0.00 81 1010.5
20260906102428 70 360 4.0 10.0 0.00 0.00 0.00 81 1010.5
20260906102330 70 360 6.0 10.0 0.00 0.00 0.00 81 1010.5
20260906102230 70 360 5.0 10.0 0.00 0.00 0.00 81 1010.5
20260906102132 70 360 3.0 8.0 0.00 0.00 0.00 81 1010.5
20260906102030 70 360 4.0 8.0 0.00 0.00 0.00 81 1010.5
20260906101948 70 360 4.0 8.0 0.00 0.00 0.00 81 1010.5
20260906101825 70 322 5.0 8.0 0.00 0.00 0.00 81 1010.5
20260906101724 70 360 4.0 8.0 0.00 0.00 0.00 81 1010.5
20260906101659 70 3 5.0 8.0 0.00 0.00 0.00 81 1010.5
20260906101538 70 1 5.0 8.0 0.00 0.00 0.00 82 1010.5
20260906101437 70 360 6.0 8.0 0.00 0.00 0.00 82 1010.5
20260906101336 70 344 6.0 8.0 0.00 0.00 0.00 82 1010.5
20260906101234 70 337 5.0 7.0 0.00 0.00 0.00 82 1010.0
20260906101132 70 325 4.0 7.0 0.00 0.00 0.00 83 1010.0
20260906101031 70 315 3.0 5.0 0.00 0.00 0.00 83 1010.0
20260906100933 70 315 2.0 3.0 0.00 0.00 0.00 83 1010.0
20260906100851 70 315 0.0 3.0 0.00 0.00 0.00 83 1010.0
20260906100752 70 313 0.0 3.0 0.00 0.00 0.00 82 1010.0
20260906100631 70 313 1.0 3.0 0.00 0.00 0.00 82 1010.0
20260906100435 70 315 2.0 5.0 0.00 0.00 0.00 82 1010.0
20260906100332 70 315 2.0 5.0 0.00 0.00 0.00 82 1010.0
20260906100231 70 315 3.0 6.0 0.00 0.00 0.00 82 1010.0
20260906100155 70 282 2.0 6.0 0.00 0.00 0.00 85 1010.0
20260906095928 70 284 2.0 8.0 0.00 0.00 0.00 86 1010.0
20260906095826 70 282 2.0 8.0 0.00 0.00 0.00 86 1010.0
20260906095724 70 281 3.0 8.0 0.00 0.00 0.00 86 1010.0
20260906095643 70 258 2.0 8.0 0.00 0.00 0.00 85 1010.0
20260906095542 70 253 2.0 8.0 0.00 0.00 0.00 85 1010.0
20260906095439 70 253 3.0 8.0 0.00 0.00 0.00 86 1010.0
20260906095342 70 253 5.0 8.0 0.00 0.00 0.00 86 1010.0
20260906095300 70 254 5.0 8.0 0.00 0.00 0.00 86 1010.0
20260906095138 70 267 6.0 8.0 0.00 0.00 0.00 86 1010.0
20260906095037 70 270 6.0 8.0 0.00 0.00 0.00 86 1010.0
20260906094934 70 272 5.0 8.0 0.00 0.00 0.00 85 1010.0
20260906094833 70 275 5.0 8.0 0.00 0.00 0.00 85 1010.0
20260906094743 70 280 4.0 8.0 0.00 0.00 0.00 85 1010.0
20260906094653 70 280 2.0 8.0 0.00 0.00 0.00 85 1010.0
20260906094535 70 280 3.0 8.0 0.00 0.00 0.00 85 1010.0
20260906094433 70 281 3.0 8.0 0.00 0.00 0.00 85 1010.0
20260906094332 70 288 4.0 8.0 0.00 0.00 0.00 85 1010.0
20260906094231 70 287 5.0 8.0 0.00 0.00 0.00 85 1009.9
20260906094130 70 265 3.0 8.0 0.00 0.00 0.00 86 1009.9
20260906094027 70 148 3.0 8.0 0.00 0.00 0.00 88 1009.9
20260906093947 70 148 4.0 8.0 0.00 0.00 0.00 88 1009.9
20260906093827 70 143 5.0 8.0 0.00 0.00 0.00 88 1009.9
20260906093725 70 141 4.0 8.0 0.00 0.00 0.00 88 1009.9
20260906093624 70 141 4.0 8.0 0.00 0.00 0.00 88 1009.9
20260906093541 70 143 5.0 8.0 0.00 0.00 0.00 88 1009.9
20260906093440 70 133 6.0 8.0 0.00 0.00 0.00 88 1009.9
20260906093339 70 138 7.0 8.0 0.00 0.00 0.00 88 1009.9
20260906093238 70 133 6.0 8.0 0.00 0.00 0.00 88 1009.9
20260906093212 70 134 5.0 8.0 0.00 0.00 0.00 88 1009.9
20260906093028 69 137 6.0 8.0 0.00 0.00 0.00 88 1009.9
20260906092926 69 131 5.0 8.0 0.00 0.00 0.00 88 1009.9
20260906092824 69 140 5.0 8.0 0.00 0.00 0.00 88 1009.9
20260906092742 69 134 5.0 8.0 0.00 0.00 0.00 88 1010.1
20260906092700 69 134 6.0 8.0 0.00 0.00 0.00 88 1010.1
20260906092557 69 134 6.0 8.0 0.00 0.00 0.00 88 1010.1
20260906092434 69 120 6.0 8.0 0.00 0.00 0.00 88 1010.1
20260906092336 69 128 4.0 7.0 0.00 0.00 0.00 88 1010.1
20260906092255 69 143 4.0 7.0 0.00 0.00 0.00 88 1010.1
20260906092132 69 144 4.0 8.0 0.00 0.00 0.00 88 1010.1
20260906092050 69 136 5.0 10.0 0.00 0.00 0.00 87 1010.1
20260906091928 69 134 5.0 11.0 0.00 0.00 0.00 88 1010.1
20260906091829 69 133 3.0 11.0 0.00 0.00 0.00 88 1010.1
20260906091737 69 130 5.0 11.0 0.00 0.00 0.00 89 1010.1
20260906091646 69 128 5.0 12.0 0.00 0.00 0.00 89 1010.1
20260906091526 69 128 6.0 12.0 0.00 0.00 0.00 89 1010.1
20260906091445 69 133 6.0 12.0 0.00 0.00 0.00 89 1010.1
20260906091404 69 126 6.0 12.0 0.00 0.00 0.00 89 1010.1
20260906091240 69 116 6.0 12.0 0.00 0.00 0.00 89 1010.3
20260906091139 69 120 8.0 12.0 0.00 0.00 0.00 89 1010.3
20260906091037 69 114 9.0 12.0 0.00 0.00 0.00 89 1010.3
20260906090957 69 104 10.0 12.0 0.00 0.00 0.00 89 1010.3
20260906090835 69 120 10.0 12.0 0.00 0.00 0.00 89 1010.3
20260906090733 69 112 10.0 12.0 0.00 0.00 0.00 89 1010.3
20260906090636 69 106 9.0 13.0 0.00 0.00 0.00 89 1010.3
20260906090534 69 112 10.0 13.0 0.00 0.00 0.00 89 1010.3
20260906090453 69 113 7.0 13.0 0.00 0.00 0.00 89 1010.3
20260906090331 69 121 6.0 13.0 0.00 0.00 0.00 89 1010.3
20260906090241 69 110 8.0 13.0 0.00 0.00 0.00 89 1010.3
20260906090152 69 123 8.0 13.0 0.00 0.00 0.00 88 1010.3
20260906090030 68 110 11.0 13.0 0.00 0.00 0.00 88 1010.3
20260906085948 68 104 10.0 17.0 0.00 0.00 0.00 88 1010.3
20260906085830 68 100 11.0 17.0 0.00 0.00 0.00 87 1010.3
20260906085728 68 96 9.0 17.0 0.00 0.00 0.00 87 1010.1
20260906085626 68 92 10.0 17.0 0.00 0.00 0.00 88 1010.1
20260906085525 68 86 11.0 17.0 0.00 0.00 0.00 88 1010.1
20260906085443 68 86 10.0 18.0 0.00 0.00 0.00 88 1010.1
20260906085341 68 88 10.0 18.0 0.00 0.00 0.00 88 1010.1
20260906085240 68 68 9.0 18.0 0.00 0.00 0.00 89 1010.1
20260906085203 68 96 12.0 18.0 0.00 0.00 0.00 89 1010.1
20260906085039 68 80 13.0 18.0 0.00 0.00 0.00 89 1010.1
20260906084937 68 90 13.0 19.0 0.00 0.00 0.00 90 1010.1
20260906084856 68 89 11.0 19.0 0.00 0.00 0.00 90 1010.1
20260906084732 68 104 10.0 19.0 0.00 0.00 0.00 90 1010.1
20260906084701 68 85 13.0 19.0 0.00 0.00 0.00 90 1010.1
20260906084538 68 93 13.0 19.0 0.00 0.00 0.00 90 1010.1
20260906084438 68 92 12.0 19.0 0.00 0.00 0.00 91 1010.1
20260906084340 68 95 13.0 19.0 0.00 0.00 0.00 91 1010.1
20260906084238 68 78 11.0 19.0 0.00 0.00 0.00 91 1009.8
20260906084157 68 83 14.0 19.0 0.00 0.00 0.00 91 1009.8
20260906084034 68 82 14.0 18.0 0.00 0.00 0.00 92 1009.8
20260906083933 68 147 13.0 17.0 0.00 0.00 0.00 92 1009.8
20260906083830 68 110 13.0 17.0 0.00 0.00 0.00 92 1009.8
20260906083728 68 95 13.0 17.0 0.00 0.00 0.00 92 1009.8
20260906083626 68 110 12.0 16.0 0.00 0.00 0.00 92 1009.8
20260906083528 68 76 12.0 16.0 0.00 0.00 0.00 92 1009.8
20260906083427 68 110 13.0 18.0 0.00 0.00 0.00 92 1009.8
20260906083325 68 119 10.0 20.0 0.00 0.00 0.00 92 1009.8
20260906083233 68 112 8.0 20.0 0.00 0.00 0.00 92 1009.8
20260906083143 68 134 9.0 24.0 0.00 0.00 0.00 92 1009.8
20260906083043 68 95 9.0 26.0 0.00 0.00 0.00 92 1009.8
20260906082941 68 130 8.0 26.0 0.00 0.00 0.00 92 1009.8
20260906082900 68 121 10.0 26.0 0.00 0.00 0.00 92 1009.8
20260906082741 68 99 8.0 26.0 0.00 0.00 0.00 92 1010.0
20260906082639 68 145 10.0 26.0 0.00 0.00 0.00 92 1010.0
20260906082538 68 80 13.0 26.0 0.00 0.00 0.00 92 1010.0
20260906082436 68 124 14.0 26.0 0.00 0.00 0.00 92 1010.0
20260906082333 68 97 16.0 26.0 0.00 0.00 0.00 92 1010.0
20260906082232 68 90 18.0 26.0 0.00 0.00 0.00 92 1010.0
20260906082150 68 83 16.0 24.0 0.00 0.00 0.00 92 1010.0
20260906082052 68 121 20.0 24.0 0.00 0.00 0.00 92 1010.0
20260906081949 68 85 15.0 24.0 0.00 0.00 0.00 92 1010.0
20260906081827 68 90 16.0 24.0 0.00 0.00 0.00 92 1010.0
20260906081725 68 82 16.0 24.0 0.00 0.00 0.00 92 1010.0
20260906081655 68 93 14.0 24.0 0.00 0.00 0.00 92 1010.0
20260906081552 68 110 17.0 24.0 0.00 0.00 0.00 92 1010.0
20260906081451 68 80 17.0 24.0 0.00 0.00 0.00 92 1010.0
20260906081327 68 93 15.0 25.0 0.00 0.00 0.00 92 1010.0
20260906081226 68 97 15.0 25.0 0.00 0.00 0.00 92 1010.5
20260906081128 68 75 16.0 25.0 0.00 0.00 0.00 92 1010.5
20260906081028 68 121 14.0 25.0 0.00 0.00 0.00 92 1010.5
20260906080926 68 65 13.0 27.0 0.00 0.00 0.00 92 1010.5
20260906080824 68 93 17.0 29.0 0.00 0.00 0.00 92 1010.5
20260906080723 68 79 17.0 29.0 0.00 0.00 0.00 92 1010.5
20260906080625 68 73 18.0 29.0 0.00 0.00 0.00 92 1010.5
20260906080527 68 83 19.0 29.0 0.00 0.00 0.00 92 1010.5
20260906080430 68 82 18.0 29.0 0.00 0.00 0.00 92 1010.5
20260906080327 68 48 15.0 29.0 0.00 0.00 0.00 92 1010.5
20260906080226 68 71 22.0 29.0 0.00 0.00 0.00 92 1010.5
20260906080155 69 88 21.0 29.0 0.00 0.00 0.00 92 1010.5
20260906080032 69 47 21.0 29.0 0.00 0.00 0.00 92 1010.5
20260906075930 69 75 22.0 29.0 0.00 0.00 0.00 92 1010.5
20260906075828 69 88 21.0 27.0 0.00 0.00 0.00 92 1010.5
20260906075750 69 76 21.0 27.0 0.00 0.00 0.00 92 1011.1
20260906075629 69 73 21.0 27.0 0.00 0.00 0.00 92 1011.1
20260906075547 69 82 20.0 27.0 0.00 0.00 0.00 92 1011.1
20260906075445 69 89 21.0 27.0 0.00 0.00 0.00 92 1011.1
20260906075403 69 83 20.0 27.0 0.00 0.00 0.00 92 1011.1
20260906075242 69 62 20.0 27.0 0.00 0.00 0.00 92 1011.1
20260906075140 69 62 19.0 27.0 0.00 0.00 0.00 92 1011.1
20260906075038 69 68 18.0 26.0 0.00 0.00 0.00 92 1011.1
20260906074940 69 69 18.0 26.0 0.00 0.00 0.00 92 1011.1
20260906074838 69 69 17.0 26.0 0.00 0.00 0.00 92 1011.1
20260906074757 69 52 16.0 26.0 0.00 0.00 0.00 92 1011.1
20260906074707 69 48 13.0 26.0 0.00 0.00 0.00 92 1011.1
20260906074543 69 44 17.0 26.0 0.00 0.00 0.00 92 1011.1
20260906074441 69 55 17.0 26.0 0.00 0.00 0.00 92 1011.1
20260906074338 69 68 16.0 25.0 0.00 0.00 0.00 92 1011.1
20260906074236 69 44 16.0 25.0 0.00 0.00 0.00 92 1011.5
20260906074134 69 42 16.0 25.0 0.00 0.00 0.00 92 1011.5
20260906074037 69 71 16.0 25.0 0.00 0.00 0.00 92 1011.5
20260906073936 69 42 15.0 25.0 0.00 0.00 0.00 92 1011.5
20260906073836 69 66 17.0 25.0 0.00 0.00 0.00 92 1011.5
20260906073734 70 52 15.0 25.0 0.00 0.00 0.00 92 1011.5
20260906073633 70 37 19.0 25.0 0.00 0.00 0.00 92 1011.5
20260906073532 70 51 19.0 25.0 0.00 0.00 0.00 91 1011.5
20260906073450 70 27 15.0 24.0 0.00 0.00 0.00 91 1011.5
20260906073332 70 64 15.0 26.0 0.00 0.00 0.00 91 1011.5
20260906073250 70 41 15.0 26.0 0.00 0.00 0.00 91 1011.5
20260906073220 70 42 15.0 26.0 0.00 0.00 0.00 91 1011.5
20260906073036 70 55 14.0 26.0 0.00 0.00 0.00 91 1011.5
20260906072935 70 62 16.0 26.0 0.00 0.00 0.00 91 1011.5
20260906072837 70 69 13.0 26.0 0.00 0.00 0.00 91 1011.5
20260906072735 70 52 16.0 26.0 0.00 0.00 0.00 91 1011.8
20260906072634 71 56 17.0 26.0 0.00 0.00 0.00 91 1011.8
20260906072556 71 42 15.0 26.0 0.00 0.00 0.00 91 1011.8
20260906072434 71 59 15.0 25.0 0.00 0.00 0.00 91 1011.8
20260906072332 71 62 17.0 25.0 0.00 0.00 0.00 91 1011.8
20260906072152 71 85 15.0 0.0 0.00 0.00 0.00 91 1011.8
20260906072044 71 42 15.0 0.0 0.00 0.00 0.00 91 1011.8
20260906072001 71 45 17.0 25.0 0.00 0.00 0.00 91 1011.8
20260906071921 71 38 20.0 25.0 0.00 0.00 0.00 91 1011.8
20260905232032 87 96 6.0 0.0 0.00 0.00 0.00 55 1009.0
20260905231933 87 93 6.0 0.0 0.00 0.00 0.00 55 1009.0
20260905231854 87 93 6.0 0.0 0.00 0.00 0.00 54 1009.0
20260905231728 87 134 6.0 0.0 0.00 0.00 0.00 55 1009.0
20260905231641 87 116 5.0 0.0 0.00 0.00 0.00 55 1009.0
20260905231526 87 106 5.0 0.0 0.00 0.00 0.00 55 1009.0
20260905231426 87 117 5.0 0.0 0.00 0.00 0.00 55 1009.0
20260905231327 87 116 5.0 0.0 0.00 0.00 0.00 55 1009.0
20260905231228 87 121 5.0 0.0 0.00 0.00 0.00 55 1009.9
20260905231149 87 123 5.0 0.0 0.00 0.00 0.00 54 1009.9
20260905231033 87 127 5.0 0.0 0.00 0.00 0.00 54 1009.9
20260905230935 87 126 6.0 11.0 0.00 0.00 0.00 53 1009.9
20260905230834 88 131 4.0 11.0 0.00 0.00 0.00 52 1009.9
20260905230752 88 131 5.0 11.0 0.00 0.00 0.00 53 1009.9
20260905230630 88 131 4.0 11.0 0.00 0.00 0.00 53 1009.9
20260905230532 88 126 7.0 11.0 0.00 0.00 0.00 53 1009.9
20260905230431 88 127 5.0 14.0 0.00 0.00 0.00 53 1009.9
20260905230350 88 131 6.0 14.0 0.00 0.00 0.00 53 1009.9
20260905230243 88 130 6.0 14.0 0.00 0.00 0.00 52 1009.9
20260905230154 88 119 7.0 14.0 0.00 0.00 0.00 52 1009.9
20260905230031 89 110 8.0 14.0 0.00 0.00 0.00 51 1009.9
20260905225929 89 114 8.0 14.0 0.00 0.00 0.00 52 1009.9
20260905225849 89 116 7.0 14.0 0.00 0.00 0.00 52 1009.9
20260905225728 89 113 7.0 14.0 0.00 0.00 0.00 51 1009.7
20260905225628 89 112 10.0 14.0 0.00 0.00 0.00 51 1009.7
20260905225527 89 114 8.0 13.0 0.00 0.00 0.00 51 1009.7
20260905225428 90 82 7.0 11.0 0.00 0.00 0.00 51 1009.7
20260905225328 90 88 7.0 11.0 0.00 0.00 0.00 53 1009.7
20260905225227 90 104 7.0 10.0 0.00 0.00 0.00 52 1009.7
20260905225125 90 113 5.0 10.0 0.00 0.00 0.00 52 1009.7
20260905225024 90 109 2.0 10.0 0.00 0.00 0.00 51 1009.7
20260905224943 90 150 3.0 10.0 0.00 0.00 0.00 51 1009.7
20260905224825 90 148 4.0 10.0 0.00 0.00 0.00 51 1009.7
20260905224745 90 145 6.0 10.0 0.00 0.00 0.00 50 1009.7
20260905224655 90 112 7.0 10.0 0.00 0.00 0.00 52 1009.7
20260905224532 90 145 5.0 9.0 0.00 0.00 0.00 51 1009.7
20260905224430 90 112 6.0 8.0 0.00 0.00 0.00 54 1009.7
20260905224330 90 32 3.0 5.0 0.00 0.00 0.00 53 1009.7
20260905224229 90 30 1.0 3.0 0.00 0.00 0.00 52 1009.9
20260905224149 90 24 1.0 3.0 0.00 0.00 0.00 50 1009.9
20260905224030 90 30 2.0 3.0 0.00 0.00 0.00 52 1009.9
20260905223931 90 30 1.0 5.0 0.00 0.00 0.00 51 1009.9
20260905223829 90 30 1.0 5.0 0.00 0.00 0.00 50 1009.9
20260905223747 90 30 1.0 5.0 0.00 0.00 0.00 50 1009.9
20260905223644 90 31 2.0 5.0 0.00 0.00 0.00 50 1009.9
20260905223543 90 31 1.0 5.0 0.00 0.00 0.00 50 1009.9
20260905223443 90 31 2.0 5.0 0.00 0.00 0.00 51 1009.9
20260905223342 90 31 2.0 5.0 0.00 0.00 0.00 50 1009.9
20260905223244 90 32 1.0 5.0 0.00 0.00 0.00 50 1009.9
20260905223215 90 32 1.0 5.0 0.00 0.00 0.00 50 1009.9
20260905223052 90 35 2.0 5.0 0.00 0.00 0.00 49 1009.9
20260905222928 90 322 1.0 3.0 0.00 0.00 0.00 48 1009.9
20260905222847 90 318 3.0 3.0 0.00 0.00 0.00 48 1009.9
20260905222743 90 319 3.0 3.0 0.00 0.00 0.00 48 1009.8
20260905222642 90 319 2.0 3.0 0.00 0.00 0.00 48 1009.8
20260905222541 90 320 2.0 3.0 0.00 0.00 0.00 48 1009.8
20260905222439 90 316 2.0 3.0 0.00 0.00 0.00 49 1009.8
20260905222342 90 318 2.0 3.0 0.00 0.00 0.00 49 1009.8
20260905222240 90 319 2.0 3.0 0.00 0.00 0.00 49 1009.8
20260905222139 90 319 1.0 3.0 0.00 0.00 0.00 49 1009.8
20260905222037 90 319 2.0 3.0 0.00 0.00 0.00 49 1009.8
20260905221937 90 316 2.0 3.0 0.00 0.00 0.00 49 1009.8
20260905221855 90 319 2.0 6.0 0.00 0.00 0.00 49 1009.8
20260905221733 90 316 1.0 6.0 0.00 0.00 0.00 49 1009.8
20260905221706 90 318 1.0 6.0 0.00 0.00 0.00 49 1009.8
20260905221605 90 319 0.0 6.0 0.00 0.00 0.00 48 1009.8
20260905221503 90 318 1.0 6.0 0.00 0.00 0.00 48 1009.8
20260905221341 90 318 1.0 6.0 0.00 0.00 0.00 48 1009.8
20260905221239 90 318 2.0 6.0 0.00 0.00 0.00 48 1009.9
20260905221158 91 318 1.0 6.0 0.00 0.00 0.00 48 1009.9
20260905221035 91 323 2.0 6.0 0.00 0.00 0.00 48 1009.9
20260905220953 91 323 5.0 7.0 0.00 0.00 0.00 47 1009.9
20260905220831 91 332 5.0 7.0 0.00 0.00 0.00 48 1009.9
20260905220733 91 332 4.0 8.0 0.00 0.00 0.00 48 1009.9
20260905220633 91 325 3.0 8.0 0.00 0.00 0.00 48 1009.9
20260905220532 91 318 4.0 8.0 0.00 0.00 0.00 49 1009.9
20260905220432 91 312 2.0 8.0 0.00 0.00 0.00 49 1009.9
20260905220331 91 312 0.0 8.0 0.00 0.00 0.00 48 1009.9
20260905220229 91 312 1.0 8.0 0.00 0.00 0.00 48 1009.9
20260905220200 91 312 4.0 8.0 0.00 0.00 0.00 48 1009.9
20260905220042 91 342 6.0 8.0 0.00 0.00 0.00 49 1009.9
20260905215939 91 328 5.0 8.0 0.00 0.00 0.00 49 1009.9
20260905215838 91 326 6.0 7.0 0.00 0.00 0.00 48 1009.9
20260905215738 91 340 5.0 7.0 0.00 0.00 0.00 49 1009.9
20260905215636 91 337 3.0 7.0 0.00 0.00 0.00 49 1009.9
20260905215534 91 339 3.0 7.0 0.00 0.00 0.00 48 1009.9
20260905215438 91 354 1.0 6.0 0.00 0.00 0.00 48 1009.9
20260905215338 91 353 2.0 6.0 0.00 0.00 0.00 48 1009.9
20260905215235 91 357 2.0 6.0 0.00 0.00 0.00 48 1009.9
20260905215133 91 357 3.0 6.0 0.00 0.00 0.00 48 1009.9
20260905215031 91 354 3.0 6.0 0.00 0.00 0.00 48 1009.9
20260905214929 91 356 4.0 6.0 0.00 0.00 0.00 48 1009.9
20260905214828 91 322 2.0 6.0 0.00 0.00 0.00 47 1009.9
20260905214730 91 326 2.0 6.0 0.00 0.00 0.00 47 1009.9
20260905214700 91 360 1.0 6.0 0.00 0.00 0.00 47 1009.9
20260905214558 91 359 2.0 6.0 0.00 0.00 0.00 47 1009.9
20260905214456 91 360 3.0 6.0 0.00 0.00 0.00 49 1009.9
20260905214333 91 16 3.0 6.0 0.00 0.00 0.00 48 1009.9
20260905214231 91 16 2.0 5.0 0.00 0.00 0.00 48 1010.0
20260905214130 91 16 3.0 5.0 0.00 0.00 0.00 47 1010.0
20260905214031 91 17 0.0 4.0 0.00 0.00 0.00 47 1010.0
20260905213933 91 14 0.0 6.0 0.00 0.00 0.00 47 1010.0
20260905213831 91 17 0.0 7.0 0.00 0.00 0.00 47 1010.0
20260905213730 91 17 0.0 7.0 0.00 0.00 0.00 48 1010.0
20260905213632 91 14 2.0 7.0 0.00 0.00 0.00 49 1010.0
20260905213551 91 14 1.0 7.0 0.00 0.00 0.00 47 1010.0
20260905213428 91 14 1.0 7.0 0.00 0.00 0.00 46 1010.0
20260905213327 91 16 2.0 7.0 0.00 0.00 0.00 46 1010.0
20260905213241 91 16 3.0 7.0 0.00 0.00 0.00 46 1010.0
20260905213153 91 16 5.0 7.0 0.00 0.00 0.00 46 1010.0
20260905213029 91 18 5.0 7.0 0.00 0.00 0.00 47 1010.0
20260905212928 91 16 3.0 7.0 0.00 0.00 0.00 47 1010.0
20260905212847 91 17 6.0 7.0 0.00 0.00 0.00 48 1010.0
20260905212725 91 20 3.0 7.0 0.00 0.00 0.00 48 1009.9
20260905212624 91 357 4.0 7.0 0.00 0.00 0.00 48 1009.9
20260905212542 91 10 2.0 7.0 0.00 0.00 0.00 48 1009.9
20260905212440 91 11 2.0 7.0 0.00 0.00 0.00 48 1009.9
20260905212341 91 328 2.0 7.0 0.00 0.00 0.00 49 1009.9
20260905212300 91 329 2.0 7.0 0.00 0.00 0.00 47 1009.9
20260905212139 91 330 0.0 7.0 0.00 0.00 0.00 47 1009.9
20260905212057 91 329 2.0 7.0 0.00 0.00 0.00 47 1009.9
20260905211935 91 330 3.0 7.0 0.00 0.00 0.00 47 1009.9
20260905211854 91 360 2.0 7.0 0.00 0.00 0.00 47 1009.9
20260905211753 91 3 5.0 7.0 0.00 0.00 0.00 46 1009.9
20260905211702 91 360 4.0 7.0 0.00 0.00 0.00 45 1009.9
20260905211540 91 25 2.0 3.0 0.00 0.00 0.00 46 1009.9
20260905211435 91 23 2.0 5.0 0.00 0.00 0.00 45 1009.9
20260905211336 91 25 2.0 6.0 0.00 0.00 0.00 47 1009.9
20260905211235 91 27 1.0 6.0 0.00 0.00 0.00 47 1009.9
20260905211134 91 27 1.0 6.0 0.00 0.00 0.00 48 1009.9
20260905211033 91 25 2.0 6.0 0.00 0.00 0.00 49 1009.9
20260905210931 91 25 2.0 6.0 0.00 0.00 0.00 46 1009.9
20260905210830 91 25 2.0 6.0 0.00 0.00 0.00 45 1009.9
20260905210728 91 24 2.0 6.0 0.00 0.00 0.00 44 1009.9
20260905210631 91 25 3.0 6.0 0.00 0.00 0.00 46 1009.9
20260905210529 91 24 4.0 6.0 0.00 0.00 0.00 47 1009.9
20260905210427 91 27 3.0 7.0 0.00 0.00 0.00 47 1009.9
20260905210326 91 27 3.0 7.0 0.00 0.00 0.00 47 1009.9
20260905210256 91 27 2.0 7.0 0.00 0.00 0.00 47 1009.9
20260905210146 91 27 2.0 7.0 0.00 0.00 0.00 47 1009.9
20260905210044 91 27 2.0 7.0 0.00 0.00 0.00 47 1009.9
20260905210003 91 27 4.0 7.0 0.00 0.00 0.00 47 1009.9
20260905205844 91 25 5.0 7.0 0.00 0.00 0.00 47 1009.9
20260905205741 91 30 5.0 7.0 0.00 0.00 0.00 48 1010.2
20260905205640 91 20 4.0 7.0 0.00 0.00 0.00 48 1010.2
20260905205539 91 18 4.0 7.0 0.00 0.00 0.00 47 1010.2
20260905205458 91 332 2.0 6.0 0.00 0.00 0.00 47 1010.2
20260905205336 91 330 0.0 6.0 0.00 0.00 0.00 47 1010.2
20260905205235 91 330 1.0 6.0 0.00 0.00 0.00 48 1010.2
20260905205154 91 329 4.0 6.0 0.00 0.00 0.00 49 1010.2
20260905205034 91 329 2.0 5.0 0.00 0.00 0.00 48 1010.2
20260905204933 91 329 2.0 5.0 0.00 0.00 0.00 48 1010.2
20260905204852 91 329 2.0 5.0 0.00 0.00 0.00 48 1010.2
20260905204801 91 325 0.0 7.0 0.00 0.00 0.00 48 1010.2
20260905204651 91 328 0.0 7.0 0.00 0.00 0.00 48 1010.2
20260905204528 91 329 2.0 8.0 0.00 0.00 0.00 48 1010.2
20260905204428 91 328 2.0 8.0 0.00 0.00 0.00 47 1010.2
20260905204326 91 329 3.0 8.0 0.00 0.00 0.00 47 1010.2
20260905204229 91 356 3.0 8.0 0.00 0.00 0.00 48 1010.3
20260905204127 91 356 2.0 8.0 0.00 0.00 0.00 47 1010.3
20260905204029 91 359 3.0 8.0 0.00 0.00 0.00 47 1010.3
20260905203928 91 360 4.0 10.0 0.00 0.00 0.00 48 1010.3
20260905203827 91 357 3.0 10.0 0.00 0.00 0.00 48 1010.3
20260905203724 91 337 6.0 10.0 0.00 0.00 0.00 48 1010.3
20260905203642 91 335 6.0 10.0 0.00 0.00 0.00 49 1010.3
20260905203540 91 329 6.0 10.0 0.00 0.00 0.00 48 1010.3
20260905203502 91 352 6.0 10.0 0.00 0.00 0.00 49 1010.3
20260905203338 91 10 5.0 10.0 0.00 0.00 0.00 48 1010.3
20260905203237 91 350 6.0 10.0 0.00 0.00 0.00 49 1010.3
20260905203207 91 305 6.0 10.0 0.00 0.00 0.00 49 1010.3
20260905203025 91 292 0.0 6.0 0.00 0.00 0.00 49 1010.3
20260905202943 91 291 1.0 6.0 0.00 0.00 0.00 49 1010.3
20260905202841 91 291 3.0 7.0 0.00 0.00 0.00 49 1010.3
20260905202722 91 3 1.0 8.0 0.00 0.00 0.00 49 1010.5
20260905202624 91 4 4.0 10.0 0.00 0.00 0.00 48 1010.5
20260905202542 91 4 4.0 10.0 0.00 0.00 0.00 48 1010.5
20260905202439 91 13 4.0 10.0 0.00 0.00 0.00 48 1010.5
20260905202341 91 11 5.0 10.0 0.00 0.00 0.00 48 1010.5
20260905202239 91 14 5.0 10.0 0.00 0.00 0.00 47 1010.5
20260905202137 91 8 4.0 10.0 0.00 0.00 0.00 49 1010.5
20260905202034 91 6 5.0 10.0 0.00 0.00 0.00 48 1010.5
20260905201936 91 360 7.0 10.0 0.00 0.00 0.00 49 1010.5
20260905201834 91 339 6.0 10.0 0.00 0.00 0.00 50 1010.5
20260905201742 91 349 2.0 8.0 0.00 0.00 0.00 49 1010.5
20260905201650 91 352 2.0 8.0 0.00 0.00 0.00 50 1010.5
20260905201548 91 316 4.0 8.0 0.00 0.00 0.00 50 1010.5
20260905201447 91 346 4.0 8.0 0.00 0.00 0.00 50 1010.5
20260905201404 91 333 3.0 8.0 0.00 0.00 0.00 49 1010.5
20260905201242 91 1 1.0 5.0 0.00 0.00 0.00 49 1010.8
20260905201124 91 1 2.0 5.0 0.00 0.00 0.00 49 1010.8
20260905201041 91 330 0.0 5.0 0.00 0.00 0.00 49 1010.8
20260905200940 91 329 0.0 5.0 0.00 0.00 0.00 49 1010.8
20260905200840 91 330 0.0 7.0 0.00 0.00 0.00 48 1010.8
20260905200738 91 328 2.0 9.0 0.00 0.00 0.00 49 1010.8
20260905200637 91 330 2.0 9.0 0.00 0.00 0.00 48 1010.8
20260905200535 91 329 0.0 9.0 0.00 0.00 0.00 48 1010.8
20260905200437 91 329 1.0 9.0 0.00 0.00 0.00 47 1010.8
20260905200338 91 328 2.0 9.0 0.00 0.00 0.00 49 1010.8
20260905200257 91 328 2.0 12.0 0.00 0.00 0.00 48 1010.8
20260905200228 91 328 3.0 12.0 0.00 0.00 0.00 47 1010.8
20260905200042 91 330 5.0 12.0 0.00 0.00 0.00 47 1010.8
20260905195941 91 330 7.0 12.0 0.00 0.00 0.00 48 1010.8
20260905195840 91 329 4.0 12.0 0.00 0.00 0.00 49 1010.8
20260905195739 91 325 3.0 12.0 0.00 0.00 0.00 49 1010.9
20260905195658 91 325 4.0 12.0 0.00 0.00 0.00 48 1010.9
20260905195603 91 313 5.0 12.0 0.00 0.00 0.00 48 1010.9
20260905195500 91 337 8.0 12.0 0.00 0.00 0.00 48 1010.9
20260905195400 91 329 8.0 12.0 0.00 0.00 0.00 50 1010.9
20260905195237 91 340 7.0 10.0 0.00 0.00 0.00 50 1010.9
20260905195135 91 312 4.0 10.0 0.00 0.00 0.00 49 1010.9
20260905195034 91 25 4.0 8.0 0.00 0.00 0.00 49 1010.9
20260905194953 91 360 1.0 7.0 0.00 0.00 0.00 48 1010.9
20260905194830 91 360 2.0 7.0 0.00 0.00 0.00 48 1010.9
20260905194728 91 360 3.0 7.0 0.00 0.00 0.00 50 1010.9
20260905194702 91 360 3.0 7.0 0.00 0.00 0.00 49 1010.9
20260905194540 91 326 3.0 7.0 0.00 0.00 0.00 48 1010.9
20260905194439 91 13 3.0 7.0 0.00 0.00 0.00 49 1010.9
20260905194337 91 4 3.0 7.0 0.00 0.00 0.00 49 1010.9
20260905194236 91 325 4.0 7.0 0.00 0.00 0.00 49 1011.0
20260905194134 90 360 4.0 6.0 0.00 0.00 0.00 49 1011.0
20260905194034 90 8 1.0 3.0 0.00 0.00 0.00 48 1011.0
20260905193937 90 8 1.0 3.0 0.00 0.00 0.00 49 1011.0
20260905193837 90 10 0.0 6.0 0.00 0.00 0.00 48 1011.0
20260905193735 90 14 0.0 7.0 0.00 0.00 0.00 47 1011.0
20260905193633 90 14 1.0 7.0 0.00 0.00 0.00 47 1011.0
20260905193532 90 13 0.0 7.0 0.00 0.00 0.00 47 1011.0
20260905193430 90 14 1.0 7.0 0.00 0.00 0.00 48 1011.0
20260905193333 90 11 1.0 7.0 0.00 0.00 0.00 47 1011.0
20260905193252 90 13 2.0 7.0 0.00 0.00 0.00 47 1011.0
20260905193224 90 16 1.0 7.0 0.00 0.00 0.00 49 1011.0
20260905193101 90 16 2.0 7.0 0.00 0.00 0.00 49 1011.0
20260905192938 90 17 3.0 7.0 0.00 0.00 0.00 50 1011.0
20260905192838 90 24 6.0 7.0 0.00 0.00 0.00 49 1011.0
20260905192758 90 359 6.0 7.0 0.00 0.00 0.00 48 1011.2
20260905192654 90 347 5.0 7.0 0.00 0.00 0.00 49 1011.2
20260905192532 90 319 2.0 8.0 0.00 0.00 0.00 48 1011.2
20260905192435 90 320 4.0 8.0 0.00 0.00 0.00 48 1011.2
20260905192334 90 333 5.0 8.0 0.00 0.00 0.00 48 1011.2
20260905192233 90 328 3.0 8.0 0.00 0.00 0.00 48 1011.2
20260905192151 90 322 1.0 8.0 0.00 0.00 0.00 49 1011.2
20260905192048 90 322 2.0 8.0 0.00 0.00 0.00 50 1011.2
20260905191926 90 320 5.0 8.0 0.00 0.00 0.00 48 1011.2
20260905191824 90 315 4.0 8.0 0.00 0.00 0.00 48 1011.2
20260905191735 90 336 7.0 8.0 0.00 0.00 0.00 48 1011.2
20260905191647 90 340 3.0 8.0 0.00 0.00 0.00 50 1011.2
20260905191525 90 346 5.0 8.0 0.00 0.00 0.00 49 1011.2
20260905191425 90 27 3.0 8.0 0.00 0.00 0.00 50 1011.2
20260905191343 90 30 3.0 8.0 0.00 0.00 0.00 50 1011.2
20260905191240 90 315 1.0 8.0 0.00 0.00 0.00 50 1011.5
20260905191139 90 318 3.0 8.0 0.00 0.00 0.00 50 1011.5
20260905191037 90 322 3.0 8.0 0.00 0.00 0.00 49 1011.5
20260905190956 90 322 6.0 8.0 0.00 0.00 0.00 49 1011.5
20260905190837 90 347 7.0 8.0 0.00 0.00 0.00 50 1011.5
20260905190737 90 336 7.0 8.0 0.00 0.00 0.00 53 1011.5
20260905190635 90 3 5.0 7.0 0.00 0.00 0.00 52 1011.5
20260905190533 90 16 4.0 7.0 0.00 0.00 0.00 51 1011.5
20260905190432 90 359 3.0 6.0 0.00 0.00 0.00 51 1011.5
20260905190349 90 359 0.0 6.0 0.00 0.00 0.00 51 1011.5
20260905190258 90 359 2.0 8.0 0.00 0.00 0.00 51 1011.5
20260905190148 90 359 0.0 8.0 0.00 0.00 0.00 51 1011.5
20260905190025 90 357 0.0 8.0 0.00 0.00 0.00 50 1011.5
20260905185947 90 357 2.0 8.0 0.00 0.00 0.00 49 1011.5
20260905185843 90 357 3.0 8.0 0.00 0.00 0.00 51 1011.5
20260905185802 90 359 2.0 8.0 0.00 0.00 0.00 50 1011.5
20260905185639 90 347 1.0 8.0 0.00 0.00 0.00 51 1011.5
20260905185537 90 347 2.0 8.0 0.00 0.00 0.00 51 1011.5
20260905185456 90 347 5.0 8.0 0.00 0.00 0.00 51 1011.5
20260905185333 90 356 5.0 8.0 0.00 0.00 0.00 50 1011.5
20260905185232 90 13 2.0 8.0 0.00 0.00 0.00 50 1011.5
20260905185134 90 11 2.0 8.0 0.00 0.00 0.00 49 1011.5
20260905185032 90 13 3.0 8.0 0.00 0.00 0.00 49 1011.5
20260905184930 90 14 5.0 8.0 0.00 0.00 0.00 51 1011.5
20260905184829 90 360 2.0 8.0 0.00 0.00 0.00 51 1011.5
20260905184748 90 346 2.0 8.0 0.00 0.00 0.00 50 1011.5
20260905184656 90 344 2.0 8.0 0.00 0.00 0.00 50 1011.5
20260905184534 91 344 2.0 8.0 0.00 0.00 0.00 50 1011.5
20260905184432 91 343 5.0 8.0 0.00 0.00 0.00 49 1011.5
20260905184336 91 329 4.0 8.0 0.00 0.00 0.00 51 1011.5
20260905184234 91 350 1.0 5.0 0.00 0.00 0.00 51 1011.7
20260905184133 91 350 1.0 5.0 0.00 0.00 0.00 50 1011.7
20260905184031 91 352 0.0 6.0 0.00 0.00 0.00 51 1011.7
20260905183929 91 352 0.0 6.0 0.00 0.00 0.00 51 1011.7
20260905183848 91 352 2.0 6.0 0.00 0.00 0.00 51 1011.7
20260905183746 91 350 0.0 8.0 0.00 0.00 0.00 50 1011.7
20260905183628 91 350 1.0 8.0 0.00 0.00 0.00 49 1011.7
20260905183525 91 354 2.0 8.0 0.00 0.00 0.00 50 1011.7
20260905183424 91 354 3.0 8.0 0.00 0.00 0.00 50 1011.7
20260905183343 91 354 2.0 11.0 0.00 0.00 0.00 50 1011.7
20260905183242 91 352 3.0 11.0 0.00 0.00 0.00 49 1011.7
20260905183213 91 352 4.0 11.0 0.00 0.00 0.00 50 1011.7
20260905183028 91 337 4.0 11.0 0.00 0.00 0.00 51 1011.7
20260905182947 91 343 6.0 11.0 0.00 0.00 0.00 50 1011.7
20260905182827 91 356 4.0 11.0 0.00 0.00 0.00 49 1011.7
20260905182727 91 28 0.0 11.0 0.00 0.00 0.00 49 1012.0
20260905182647 91 31 2.0 11.0 0.00 0.00 0.00 49 1012.0
20260905182543 91 30 6.0 11.0 0.00 0.00 0.00 49 1012.0
20260905182442 91 30 7.0 11.0 0.00 0.00 0.00 48 1012.0
20260905182341 91 325 6.0 9.0 0.00 0.00 0.00 52 1012.0
20260905182238 91 328 3.0 7.0 0.00 0.00 0.00 52 1012.0
20260905182137 91 353 3.0 7.0 0.00 0.00 0.00 52 1012.0
20260905182040 91 350 3.0 7.0 0.00 0.00 0.00 52 1012.0
20260905181939 91 349 1.0 7.0 0.00 0.00 0.00 52 1012.0
20260905181856 91 353 3.0 7.0 0.00 0.00 0.00 52 1012.0
20260905181815 91 1 4.0 7.0 0.00 0.00 0.00 51 1012.0
20260905181723 90 16 2.0 7.0 0.00 0.00 0.00 52 1012.0
20260905181540 90 322 0.0 6.0 0.00 0.00 0.00 52 1012.0
20260905181501 90 320 2.0 6.0 0.00 0.00 0.00 53 1012.0
20260905181338 90 322 2.0 6.0 0.00 0.00 0.00 53 1012.0
20260905181240 90 319 2.0 7.0 0.00 0.00 0.00 53 1012.0
20260905181159 90 320 2.0 7.0 0.00 0.00 0.00 53 1012.0
20260905181035 90 318 1.0 7.0 0.00 0.00 0.00 53 1012.0
20260905180933 90 319 1.0 8.0 0.00 0.00 0.00 52 1012.0
20260905180831 90 319 4.0 8.0 0.00 0.00 0.00 52 1012.0
20260905180749 90 356 4.0 8.0 0.00 0.00 0.00 53 1012.0
20260905180627 90 357 0.0 8.0 0.00 0.00 0.00 53 1012.0
20260905180526 90 359 1.0 8.0 0.00 0.00 0.00 52 1012.0
20260905180429 90 359 4.0 8.0 0.00 0.00 0.00 51 1012.0
20260905180327 90 17 3.0 8.0 0.00 0.00 0.00 51 1012.0
20260905180245 90 17 5.0 8.0 0.00 0.00 0.00 52 1012.0
20260905180155 90 16 6.0 8.0 0.00 0.00 0.00 52 1012.0
20260905180032 90 295 5.0 7.0 0.00 0.00 0.00 52 1012.0
20260905175932 90 356 4.0 7.0 0.00 0.00 0.00 54 1012.0
20260905175851 90 343 5.0 7.0 0.00 0.00 0.00 55 1012.0
20260905175731 90 359 4.0 7.0 0.00 0.00 0.00 55 1012.1
20260905175632 90 360 4.0 7.0 0.00 0.00 0.00 54 1012.1
20260905175531 90 32 2.0 5.0 0.00 0.00 0.00 54 1012.1
20260905175429 90 34 2.0 6.0 0.00 0.00 0.00 54 1012.1
20260905175327 90 32 1.0 6.0 0.00 0.00 0.00 55 1012.1
20260905175246 90 31 0.0 6.0 0.00 0.00 0.00 55 1012.1
20260905175204 90 32 0.0 7.0 0.00 0.00 0.00 55 1012.1
20260905175040 90 34 1.0 8.0 0.00 0.00 0.00 54 1012.1
20260905174940 90 31 2.0 8.0 0.00 0.00 0.00 54 1012.1
20260905174903 90 34 2.0 8.0 0.00 0.00 0.00 55 1012.1
20260905174740 90 32 2.0 8.0 0.00 0.00 0.00 55 1012.1
20260905174711 90 38 2.0 8.0 0.00 0.00 0.00 55 1012.1
20260905174528 90 37 4.0 8.0 0.00 0.00 0.00 56 1012.1
20260905174427 90 40 3.0 8.0 0.00 0.00 0.00 55 1012.1
20260905174326 90 42 5.0 8.0 0.00 0.00 0.00 55 1012.1
20260905174243 90 44 6.0 8.0 0.00 0.00 0.00 55 1012.4
20260905174126 90 38 6.0 8.0 0.00 0.00 0.00 54 1012.4
20260905174025 90 309 1.0 6.0 0.00 0.00 0.00 56 1012.4
20260905173943 90 291 0.0 6.0 0.00 0.00 0.00 56 1012.4
20260905173841 90 291 1.0 6.0 0.00 0.00 0.00 56 1012.4
20260905173759 90 291 2.0 6.0 0.00 0.00 0.00 55 1012.4
20260905173638 90 294 1.0 6.0 0.00 0.00 0.00 56 1012.4
20260905173556 90 295 1.0 6.0 0.00 0.00 0.00 56 1012.4
20260905173432 90 287 1.0 6.0 0.00 0.00 0.00 56 1012.4
20260905173330 89 288 4.0 6.0 0.00 0.00 0.00 55 1012.4
20260905173232 89 315 3.0 7.0 0.00 0.00 0.00 56 1012.4
20260905173203 89 316 2.0 7.0 0.00 0.00 0.00 56 1012.4
20260905173039 89 316 2.0 7.0 0.00 0.00 0.00 56 1012.4
20260905172938 89 319 2.0 7.0 0.00 0.00 0.00 56 1012.4
20260905172837 89 318 1.0 7.0 0.00 0.00 0.00 56 1012.4
20260905172739 89 320 2.0 7.0 0.00 0.00 0.00 55 1012.6
20260905172657 89 323 2.0 10.0 0.00 0.00 0.00 54 1012.6
20260905172535 89 322 2.0 10.0 0.00 0.00 0.00 56 1012.6
20260905172459 89 322 2.0 10.0 0.00 0.00 0.00 55 1012.6
20260905172336 89 319 5.0 10.0 0.00 0.00 0.00 55 1012.6
20260905172235 89 329 1.0 10.0 0.00 0.00 0.00 56 1012.6
20260905172134 89 329 0.0 10.0 0.00 0.00 0.00 56 1012.6
20260905172031 89 329 2.0 10.0 0.00 0.00 0.00 56 1012.6
20260905171928 89 328 3.0 10.0 0.00 0.00 0.00 56 1012.6
20260905171847 89 325 7.0 10.0 0.00 0.00 0.00 55 1012.6
20260905171736 89 294 4.0 7.0 0.00 0.00 0.00 56 1012.6
20260905171647 89 302 1.0 7.0 0.00 0.00 0.00 56 1012.6
20260905171545 89 344 1.0 7.0 0.00 0.00 0.00 55 1012.6
20260905171442 89 342 2.0 7.0 0.00 0.00 0.00 55 1012.6
20260905171341 89 343 1.0 7.0 0.00 0.00 0.00 55 1012.6
20260905171239 89 343 3.0 7.0 0.00 0.00 0.00 56 1012.6
20260905171138 89 344 5.0 7.0 0.00 0.00 0.00 57 1012.6
20260905171057 89 359 5.0 7.0 0.00 0.00 0.00 57 1012.6
20260905170934 89 340 2.0 7.0 0.00 0.00 0.00 56 1012.6
20260905170852 89 340 2.0 7.0 0.00 0.00 0.00 56 1012.6
20260905170734 89 330 0.0 7.0 0.00 0.00 0.00 56 1012.6
20260905170633 89 330 3.0 7.0 0.00 0.00 0.00 56 1012.6
20260905170531 89 330 4.0 7.0 0.00 0.00 0.00 57 1012.6
20260905170449 89 330 2.0 7.0 0.00 0.00 0.00 57 1012.6
20260905170326 89 325 1.0 7.0 0.00 0.00 0.00 57 1012.6
20260905170237 89 325 3.0 7.0 0.00 0.00 0.00 56 1012.6
20260905170146 89 332 0.0 7.0 0.00 0.00 0.00 56 1012.6
20260905170027 89 328 1.0 7.0 0.00 0.00 0.00 56 1012.6
20260905165945 89 332 6.0 7.0 0.00 0.00 0.00 55 1012.6
20260905165841 89 326 6.0 7.0 0.00 0.00 0.00 56 1012.6
20260905165800 89 302 3.0 7.0 0.00 0.00 0.00 57 1012.8
20260905165638 88 292 1.0 7.0 0.00 0.00 0.00 58 1012.8
20260905165536 88 280 3.0 7.0 0.00 0.00 0.00 58 1012.8
20260905165435 88 292 2.0 7.0 0.00 0.00 0.00 57 1012.8
20260905165334 88 292 3.0 7.0 0.00 0.00 0.00 58 1012.8
20260905165237 88 284 2.0 6.0 0.00 0.00 0.00 57 1012.8
20260905165136 88 328 2.0 7.0 0.00 0.00 0.00 58 1012.8
20260905165035 88 328 2.0 7.0 0.00 0.00 0.00 58 1012.8
20260905164933 88 329 1.0 7.0 0.00 0.00 0.00 57 1012.8
20260905164833 88 330 3.0 7.0 0.00 0.00 0.00 57 1012.8
20260905164743 88 292 1.0 7.0 0.00 0.00 0.00 57 1012.8
20260905164652 88 295 2.0 7.0 0.00 0.00 0.00 58 1012.8
20260905164537 88 295 2.0 7.0 0.00 0.00 0.00 57 1012.8
20260905164435 88 318 3.0 7.0 0.00 0.00 0.00 57 1012.8
20260905164334 88 328 4.0 7.0 0.00 0.00 0.00 60 1012.8
20260905164234 88 329 2.0 6.0 0.00 0.00 0.00 59 1013.1
20260905164132 88 313 1.0 6.0 0.00 0.00 0.00 59 1013.1
20260905164051 88 313 2.0 6.0 0.00 0.00 0.00 60 1013.1
20260905163927 88 312 1.0 6.0 0.00 0.00 0.00 59 1013.1
20260905163831 87 308 0.0 6.0 0.00 0.00 0.00 59 1013.1
20260905163729 87 311 0.0 7.0 0.00 0.00 0.00 60 1013.1
20260905163630 87 311 0.0 7.0 0.00 0.00 0.00 61 1013.1
20260905163528 87 311 2.0 7.0 0.00 0.00 0.00 61 1013.1
20260905163429 87 308 3.0 7.0 0.00 0.00 0.00 60 1013.1
20260905163325 87 309 5.0 7.0 0.00 0.00 0.00 61 1013.1
20260905163227 87 309 4.0 7.0 0.00 0.00 0.00 60 1013.1
20260905163158 87 320 3.0 7.0 0.00 0.00 0.00 60 1013.1
20260905163039 87 337 2.0 7.0 0.00 0.00 0.00 61 1013.1
20260905162939 87 292 3.0 7.0 0.00 0.00 0.00 61 1013.1
20260905162837 87 325 3.0 7.0 0.00 0.00 0.00 61 1013.1
20260905162735 87 320 2.0 6.0 0.00 0.00 0.00 61 1013.2
20260905162635 87 318 3.0 6.0 0.00 0.00 0.00 61 1013.2
20260905162533 87 319 1.0 6.0 0.00 0.00 0.00 61 1013.2
20260905162431 87 318 3.0 6.0 0.00 0.00 0.00 61 1013.2
20260905162334 87 319 4.0 6.0 0.00 0.00 0.00 61 1013.2
20260905162252 87 313 2.0 6.0 0.00 0.00 0.00 61 1013.2
20260905162155 87 335 2.0 6.0 0.00 0.00 0.00 60 1013.2
20260905162034 87 319 2.0 6.0 0.00 0.00 0.00 60 1013.2
20260905161936 87 346 4.0 6.0 0.00 0.00 0.00 62 1013.2
20260905161833 87 318 2.0 6.0 0.00 0.00 0.00 62 1013.2
20260905161752 87 313 1.0 6.0 0.00 0.00 0.00 62 1013.2
20260905161721 87 315 2.0 6.0 0.00 0.00 0.00 62 1013.2
20260905161542 86 312 1.0 6.0 0.00 0.00 0.00 62 1013.2
20260905161501 86 313 0.0 6.0 0.00 0.00 0.00 62 1013.2
20260905161338 86 311 1.0 6.0 0.00 0.00 0.00 62 1013.2
20260905161237 86 312 3.0 6.0 0.00 0.00 0.00 62 1013.4
20260905161135 86 313 2.0 6.0 0.00 0.00 0.00 61 1013.4
20260905161034 86 312 4.0 6.0 0.00 0.00 0.00 62 1013.4
20260905160931 86 313 3.0 6.0 0.00 0.00 0.00 63 1013.4
20260905160851 86 312 2.0 6.0 0.00 0.00 0.00 63 1013.4
20260905160732 86 311 4.0 6.0 0.00 0.00 0.00 62 1013.4
20260905160631 86 312 5.0 6.0 0.00 0.00 0.00 63 1013.4
20260905160531 86 312 4.0 6.0 0.00 0.00 0.00 62 1013.4
20260905160429 86 315 4.0 6.0 0.00 0.00 0.00 62 1013.4
20260905160348 86 316 2.0 3.0 0.00 0.00 0.00 62 1013.4
20260905160246 86 316 1.0 3.0 0.00 0.00 0.00 62 1013.4
20260905160216 86 318 1.0 3.0 0.00 0.00 0.00 62 1013.4
20260905160031 86 319 2.0 5.0 0.00 0.00 0.00 63 1013.4
20260905155934 86 318 0.0 5.0 0.00 0.00 0.00 63 1013.4
20260905155834 86 318 1.0 5.0 0.00 0.00 0.00 63 1013.4
20260905155752 86 316 2.0 5.0 0.00 0.00 0.00 63 1013.4
20260905155630 86 318 1.0 5.0 0.00 0.00 0.00 64 1013.4
20260905155528 86 318 2.0 5.0 0.00 0.00 0.00 63 1013.4
20260905155427 86 318 2.0 5.0 0.00 0.00 0.00 64 1013.4
20260905155328 85 315 2.0 5.0 0.00 0.00 0.00 64 1013.4
20260905155230 85 318 4.0 5.0 0.00 0.00 0.00 65 1013.4
20260905155127 85 318 2.0 5.0 0.00 0.00 0.00 66 1013.4
20260905155027 85 318 1.0 5.0 0.00 0.00 0.00 65 1013.4
20260905154926 85 316 2.0 5.0 0.00 0.00 0.00 66 1013.4
20260905154826 85 316 1.0 6.0 0.00 0.00 0.00 65 1013.4
20260905154726 85 318 0.0 6.0 0.00 0.00 0.00 65 1013.4
20260905154657 85 318 0.0 6.0 0.00 0.00 0.00 65 1013.4
20260905154537 85 319 0.0 7.0 0.00 0.00 0.00 65 1013.4
20260905154455 85 318 1.0 7.0 0.00 0.00 0.00 66 1013.4
20260905154333 85 318 2.0 7.0 0.00 0.00 0.00 67 1013.4
20260905154233 85 318 4.0 7.0 0.00 0.00 0.00 68 1013.4
20260905154131 85 316 3.0 7.0 0.00 0.00 0.00 68 1013.4
20260905154029 85 318 4.0 7.0 0.00 0.00 0.00 66 1013.4
20260905153928 85 318 4.0 7.0 0.00 0.00 0.00 66 1013.4
20260905153827 85 319 5.0 7.0 0.00 0.00 0.00 66 1013.4
20260905153728 85 320 5.0 7.0 0.00 0.00 0.00 68 1013.4
20260905153627 85 320 3.0 6.0 0.00 0.00 0.00 67 1013.4
20260905153527 85 320 3.0 6.0 0.00 0.00 0.00 67 1013.4
20260905153426 85 322 3.0 6.0 0.00 0.00 0.00 67 1013.4
20260905153344 85 319 1.0 5.0 0.00 0.00 0.00 68 1013.4
20260905153242 85 320 3.0 5.0 0.00 0.00 0.00 68 1013.4
20260905153213 85 319 3.0 5.0 0.00 0.00 0.00 69 1013.4
20260905153049 85 333 2.0 5.0 0.00 0.00 0.00 68 1013.4
20260905152929 85 333 1.0 5.0 0.00 0.00 0.00 68 1013.4
20260905152827 85 335 1.0 5.0 0.00 0.00 0.00 68 1013.4
20260905152747 85 335 1.0 5.0 0.00 0.00 0.00 69 1013.4
20260905152649 84 333 2.0 5.0 0.00 0.00 0.00 69 1013.4
20260905152546 84 333 1.0 5.0 0.00 0.00 0.00 69 1013.4
20260905152446 84 333 2.0 5.0 0.00 0.00 0.00 69 1013.4
20260905152344 84 333 3.0 5.0 0.00 0.00 0.00 68 1013.4
20260905152301 84 335 3.0 5.0 0.00 0.00 0.00 68 1013.4
20260905152139 84 336 3.0 5.0 0.00 0.00 0.00 69 1013.4
20260905152057 84 336 1.0 4.0 0.00 0.00 0.00 68 1013.4
20260905151954 84 337 1.0 4.0 0.00 0.00 0.00 68 1013.4
20260905151836 84 340 0.0 4.0 0.00 0.00 0.00 68 1013.4
20260905151735 84 339 0.0 4.0 0.00 0.00 0.00 69 1013.4
20260905151704 84 339 0.0 4.0 0.00 0.00 0.00 69 1013.4
20260905151541 84 339 0.0 4.0 0.00 0.00 0.00 69 1013.4
20260905151439 84 337 0.0 4.0 0.00 0.00 0.00 69 1013.4
20260905151337 84 340 1.0 4.0 0.00 0.00 0.00 69 1013.4
20260905151237 84 339 0.0 4.0 0.00 0.00 0.00 70 1012.4
20260905151140 84 340 0.0 2.0 0.00 0.00 0.00 70 1012.4
20260905151039 84 340 0.0 2.0 0.00 0.00 0.00 70 1012.4
20260905150937 83 340 0.0 2.0 0.00 0.00 0.00 70 1012.4
20260905150836 83 337 0.0 2.0 0.00 0.00 0.00 71 1012.4
20260905150734 83 340 0.0 2.0 0.00 0.00 0.00 71 1012.4
20260905150633 83 340 0.0 2.0 0.00 0.00 0.00 71 1012.4
20260905150535 83 339 0.0 2.0 0.00 0.00 0.00 71 1012.4
20260905150433 83 342 0.0 2.0 0.00 0.00 0.00 71 1012.4
20260905150332 83 342 1.0 2.0 0.00 0.00 0.00 71 1012.4
20260905150301 83 340 2.0 2.0 0.00 0.00 0.00 71 1012.4
20260905150151 83 337 2.0 2.0 0.00 0.00 0.00 71 1012.4
20260905150030 83 339 0.0 2.0 0.00 0.00 0.00 71 1012.4
20260905145927 83 336 0.0 1.0 0.00 0.00 0.00 71 1012.4
20260905145846 83 340 0.0 1.0 0.00 0.00 0.00 71 1012.4
20260905145804 83 335 0.0 1.0 0.00 0.00 0.00 71 1012.5
20260905145707 83 340 0.0 1.0 0.00 0.00 0.00 71 1012.5
20260905145605 83 340 0.0 2.0 0.00 0.00 0.00 71 1012.5
20260905145442 83 340 0.0 2.0 0.00 0.00 0.00 71 1012.5
20260905145341 83 340 0.0 2.0 0.00 0.00 0.00 71 1012.5
20260905145258 82 340 0.0 2.0 0.00 0.00 0.00 71 1012.5
20260905145137 82 340 0.0 2.0 0.00 0.00 0.00 71 1012.5
20260905145034 82 340 0.0 2.0 0.00 0.00 0.00 71 1012.5
20260905144933 82 337 0.0 2.0 0.00 0.00 0.00 72 1012.5
20260905144856 82 340 0.0 3.0 0.00 0.00 0.00 72 1012.5
20260905144703 82 340 0.0 3.0 0.00 0.00 0.00 71 1012.5
20260905144541 82 340 0.0 3.0 0.00 0.00 0.00 71 1012.5
20260905144440 82 340 0.0 3.0 0.00 0.00 0.00 70 1012.5
20260905144339 82 340 0.0 3.0 0.00 0.00 0.00 70 1012.5
20260905144237 82 339 0.0 3.0 0.00 0.00 0.00 70 1012.8
20260905144140 82 340 1.0 4.0 0.00 0.00 0.00 70 1012.8
20260905144059 82 336 2.0 4.0 0.00 0.00 0.00 70 1012.8
20260905143936 82 340 1.0 4.0 0.00 0.00 0.00 69 1012.8
20260905143834 82 339 1.0 4.0 0.00 0.00 0.00 69 1012.8
20260905143733 82 340 2.0 5.0 0.00 0.00 0.00 70 1012.8
20260905143632 82 336 2.0 5.0 0.00 0.00 0.00 71 1012.8
20260905143531 82 340 1.0 5.0 0.00 0.00 0.00 71 1012.8
20260905143450 82 342 2.0 5.0 0.00 0.00 0.00 72 1012.8
20260905143335 82 340 2.0 5.0 0.00 0.00 0.00 73 1012.8
20260905143233 82 340 1.0 5.0 0.00 0.00 0.00 73 1012.8
20260905143205 81 342 1.0 5.0 0.00 0.00 0.00 72 1012.8
20260905143041 81 340 1.0 5.0 0.00 0.00 0.00 72 1012.8
20260905142940 81 339 3.0 5.0 0.00 0.00 0.00 72 1012.8
20260905142838 81 336 2.0 5.0 0.00 0.00 0.00 71 1012.8
20260905142737 81 337 2.0 5.0 0.00 0.00 0.00 71 1012.9
20260905142639 81 337 1.0 5.0 0.00 0.00 0.00 70 1012.9
20260905142537 81 337 2.0 5.0 0.00 0.00 0.00 71 1012.9
20260905142437 81 336 1.0 5.0 0.00 0.00 0.00 72 1012.9
20260905142334 81 339 1.0 5.0 0.00 0.00 0.00 71 1012.9
20260905142234 81 339 2.0 5.0 0.00 0.00 0.00 71 1012.9
20260905142133 81 339 2.0 5.0 0.00 0.00 0.00 72 1012.9
20260905142032 81 342 0.0 3.0 0.00 0.00 0.00 73 1012.9
20260905141954 81 340 2.0 3.0 0.00 0.00 0.00 74 1012.9
20260905141832 81 343 2.0 3.0 0.00 0.00 0.00 74 1012.9
20260905141732 81 343 1.0 3.0 0.00 0.00 0.00 74 1012.9
20260905141700 81 344 1.0 3.0 0.00 0.00 0.00 74 1012.9
20260905141538 81 346 1.0 3.0 0.00 0.00 0.00 74 1012.9
20260905141437 81 344 0.0 3.0 0.00 0.00 0.00 73 1012.9
20260905141336 81 346 1.0 3.0 0.00 0.00 0.00 71 1012.9
20260905141256 81 347 0.0 3.0 0.00 0.00 0.00 71 1013.0
20260905141137 81 344 1.0 3.0 0.00 0.00 0.00 70 1013.0
20260905141035 81 346 2.0 3.0 0.00 0.00 0.00 71 1013.0
20260905140933 81 346 1.0 3.0 0.00 0.00 0.00 71 1013.0
20260905140834 81 347 1.0 3.0 0.00 0.00 0.00 71 1013.0
20260905140732 80 346 0.0 2.0 0.00 0.00 0.00 71 1013.0
20260905140630 80 346 1.0 3.0 0.00 0.00 0.00 72 1013.0
20260905140533 80 346 1.0 3.0 0.00 0.00 0.00 72 1013.0
20260905140451 80 346 0.0 3.0 0.00 0.00 0.00 73 1013.0
20260905140328 80 347 0.0 3.0 0.00 0.00 0.00 73 1013.0
20260905140248 80 344 0.0 3.0 0.00 0.00 0.00 74 1013.0
20260905140158 80 346 0.0 3.0 0.00 0.00 0.00 74 1013.0
20260905140054 80 346 1.0 3.0 0.00 0.00 0.00 74 1013.0
20260905135930 80 344 1.0 3.0 0.00 0.00 0.00 75 1013.0
20260905135827 80 346 2.0 4.0 0.00 0.00 0.00 75 1013.0
20260905135727 80 346 1.0 5.0 0.00 0.00 0.00 75 1013.0
20260905135624 80 346 0.0 5.0 0.00 0.00 0.00 75 1013.0
20260905135527 80 346 0.0 5.0 0.00 0.00 0.00 75 1013.0
20260905135446 80 346 0.0 5.0 0.00 0.00 0.00 75 1013.0
20260905135404 80 344 0.0 5.0 0.00 0.00 0.00 75 1013.0
20260905135301 79 347 0.0 5.0 0.00 0.00 0.00 74 1013.0
20260905135137 79 346 1.0 5.0 0.00 0.00 0.00 74 1013.0
20260905135035 79 346 2.0 5.0 0.00 0.00 0.00 74 1013.0
20260905134933 79 347 3.0 5.0 0.00 0.00 0.00 74 1013.0
20260905134832 79 347 1.0 2.0 0.00 0.00 0.00 74 1013.0